Content
SEND FEEDBACK

Daily
Averages
Monthly
Summary
Greece

KALAMATA, GREECE


Home > Europe > Greece
Elevation: 26 feet     Latitude: 37 04N     Longitude: 022 01E

WEATHER
 
SELECT A DAY
Number of Records: 253,027;   Date Range: 7/1/96 - 11/25/14
 
SHARE

PRINT THIS DATA

[ ← Previous Day ]
WEATHER ALMANAC - AUGUST 18, 2013
[ Next Day → ]
[ °C ]   °F
Weather ElementAverageHighLow
Temperature83.4 °F95 °F (11:50 am)71.6 °F (12:50 am)
Dewpoint60 °F71.6 °F (8:50 pm)50 °F (11:50 am)
Humidity48.6 %88 % (11:50 pm)22 % (11:50 am)
Barometer29.91 in29.95 in (9:50 am)29.89 in (1:20 am)
Wind Speed4.6 mph12.7 mph (3:20 pm)
Weather ElementAverage
Visibility6.2 mi
Wind DirectionE (92.2 °)

Weather ElementTotal
Precipitation---
Cooling Degree Days18.3 (Base 65)
Growing Degree Days33.3 (Base 50)
Averaged from 46 records on August 18, 2013
WEATHER CONDITIONS BREAKOUT
WIND DIRECTION BREAKOUT
WEATHER BY HOUR - AUGUST 18, 2013
[ °C ]   °F
Local TimeTemperatureDewpointHumidityBarometerVisibilityWind DirectionWind SpeedGust SpeedPrecipitationEventsConditions
12:50 AM71.6 °F62.6 °F73 %29.92 inNNW (340°)4.6 mph
1:20 AM75.2 °F60.8 °F61 %29.89 inVariable3.5 mph
1:50 AM75.2 °F60.8 °F61 %29.89 inVariable3.5 mph
2:20 AM73.4 °F60.8 °F65 %29.89 inVariable3.5 mph
2:50 AM73.4 °F59.0 °F61 %29.89 inVariable3.5 mph
3:20 AM73.4 °F57.2 °F57 %29.89 inVariable2.3 mph
3:50 AM71.6 °F59.0 °F64 %29.89 inVariable1.2 mph
4:20 AM78.8 °F57.2 °F47 %29.89 inVariable3.5 mph
4:50 AM77.0 °F57.2 °F50 %29.89 inVariable3.5 mph
5:20 AM77.0 °F55.4 °F47 %29.89 inNE (50°)5.8 mph
5:50 AM75.2 °F57.2 °F53 %29.89 inVariable3.5 mph
6:50 AM75.2 °F57.2 °F53 %29.89 inCalmClear
7:20 AM75.2 °F57.2 °F53 %29.92 inCalmClear
7:50 AM75.2 °F57.2 °F53 %29.92 inCalmClear
8:20 AM78.8 °F57.2 °F47 %29.92 inNNE (20°)5.8 mphClear
8:50 AM82.4 °F57.2 °F42 %29.92 inCalmClear
9:20 AM84.2 °F59.0 °F42 %29.92 inNorth (350°)6.9 mphClear
9:50 AM86.0 °F57.2 °F37 %29.95 inNNW (340°)5.8 mphClear
10:20 AM89.6 °F53.6 °F29 %29.92 inNNW (340°)5.8 mphClear
10:50 AM91.4 °F51.8 °F26 %29.92 inNNW (330°)4.6 mphClear
11:20 AM93.2 °F53.6 °F26 %29.92 inNorth6.9 mphClear
11:50 AM95.0 °F50.0 °F22 %29.92 in6.2 miNNE (30°)6.9 mphPartly Cloudy
12:20 PM95.0 °F50.0 °F22 %29.92 in6.2 miCalmPartly Cloudy
12:50 PM95.0 °F57.2 °F28 %29.92 in6.2 miSouth (180°)9.2 mphPartly Cloudy
1:20 PM93.2 °F59.0 °F32 %29.92 in6.2 miSouth (190°)8.1 mphPartly Cloudy
1:50 PM93.2 °F60.8 °F34 %29.92 in6.2 miSSE (150°)6.9 mphPartly Cloudy
2:20 PM91.4 °F64.4 °F41 %29.92 in6.2 miSouth (170°)10.4 mphPartly Cloudy
2:50 PM93.2 °F60.8 °F34 %29.89 in6.2 miSSW (210°)10.4 mphScattered Clouds
3:20 PM91.4 °F59.0 °F34 %29.89 in6.2 miSSW (200°)12.7 mphScattered Clouds
3:50 PM93.2 °F57.2 °F30 %29.89 in6.2 miSSW (200°)12.7 mphScattered Clouds
4:20 PM93.2 °F53.6 °F26 %29.89 in6.2 miSouth (190°)11.5 mphScattered Clouds
4:50 PM91.4 °F53.6 °F28 %29.89 in6.2 miSouth (180°)10.4 mphScattered Clouds
5:20 PM91.4 °F55.4 °F29 %29.89 in6.2 miSSE (160°)9.2 mphScattered Clouds
5:50 PM91.4 °F51.8 °F26 %29.89 in6.2 miSouth (190°)8.1 mphScattered Clouds
6:20 PM89.6 °F64.4 °F43 %29.89 in6.2 miSSW (200°)6.9 mphMostly Cloudy
6:50 PM87.8 °F62.6 °F43 %29.89 in6.2 miCalmMostly Cloudy
7:20 PM87.8 °F64.4 °F46 %29.89 in6.2 miCalmScattered Clouds
7:50 PM84.2 °F66.2 °F55 %29.89 in6.2 miCalmScattered Clouds
8:20 PM82.4 °F69.8 °F66 %29.92 in6.2 miSW (220°)4.6 mphScattered Clouds
8:50 PM80.6 °F71.6 °F74 %29.92 in6.2 miCalmScattered Clouds
9:20 PM80.6 °F69.8 °F70 %29.92 in6.2 miCalmPartly Cloudy
9:50 PM78.8 °F69.8 °F74 %29.92 in6.2 miCalmPartly Cloudy
10:20 PM77.0 °F71.6 °F83 %29.95 inVariable2.3 mph
10:50 PM77.0 °F69.8 °F78 %29.95 inVariable2.3 mph
11:20 PM75.2 °F69.8 °F83 %29.95 inVariable3.5 mph
11:50 PM73.4 °F69.8 °F88 %29.95 inVariable3.5 mph
Hourly data recorded from LGKL, located miles away from Kalamata, Greece







STORIES FROM OUR PARTNERS